{"data":{"norad_id":65662,"intl_designator":"2025-211L","name":"STARLINK-35176","alt_names":[],"object_type":"PAYLOAD","status":"ACTIVE","operator":null,"country":"US","launch_date":"2025-09-19","launch_site_code":"AFWTR","launch_vehicle":null,"mission":null,"orbit_class":"UNKNOWN","rcs_meters":null,"size_class":null,"mass_kg":null,"dimensions":null,"purposes":["comms"],"wikipedia_slug":null,"has_3d_model":false,"image_url":null,"decayed_at":null,"tle_current":{"epoch":"2026-09-20T14:27:55.914336Z","epoch_age_seconds":100191,"freshness":"FRESH","line1":"1 65662U 25211L   26263.60273049  .00016384  00000+0  50821-3 0  9996","line2":"2 65662  97.2835 303.8998 0000947 207.1288 152.9905 15.33476653 56543","mean_motion":15.33476653,"eccentricity":9.47e-5,"inclination_deg":97.2835,"raan_deg":303.8998,"arg_perigee_deg":207.1288,"mean_anomaly_deg":152.9905,"bstar":0.00050821,"rev_number":5654,"period_min":93.904266307731,"perigee_km":464.80091144576,"apogee_km":466.09708663397,"semimajor_km":6843.5859990399,"source":"CELESTRAK","updated_at":"2026-09-21T09:00:35.681123Z"}}}